CW0962 Weather Reports


Display with metric or nautical units.
time (UTC)temp
F
wind
direction
speed
MPH
gust
MPH
rain 1hr
in
rain 24hr
in
rain mn
in
humidity
%
barometer
mb
20260505230503 61 192 9.0 27.0 0.00 0.00 0.00 63 1008.2
20260505225506 62 178 9.0 23.0 0.00 0.00 0.00 61 1008.1
20260505225000 62 201 10.0 21.0 0.00 0.00 0.00 61 1008.2
20260505224608 62 169 10.0 24.0 0.00 0.00 0.00 60 1007.9
20260505224006 63 198 10.0 26.0 0.00 0.00 0.00 59 1008.0
20260505223500 63 175 10.0 26.0 0.00 0.00 0.00 59 1007.9
20260505223027 63 99 10.0 26.0 0.00 0.00 0.00 59 1007.9
20260505222504 63 168 9.0 26.0 0.00 0.00 0.00 59 1007.8
20260505221020 64 246 7.0 19.0 0.00 0.00 0.00 61 1007.6
20260505220506 64 157 8.0 26.0 0.00 0.00 0.00 62 1007.5
20260505220007 63 142 9.0 26.0 0.00 0.00 0.00 62 1007.6
20260505215517 63 172 9.0 26.0 0.00 0.00 0.00 62 1007.6
20260505214513 63 189 9.0 19.0 0.00 0.00 0.00 63 1007.4
20260505214005 64 134 9.0 25.0 0.00 0.00 0.00 61 1007.2
20260505213507 64 161 8.0 25.0 0.00 0.00 0.00 61 1007.5
20260505213000 64 97 8.0 20.0 0.00 0.00 0.00 61 1007.3
20260505212500 64 170 8.0 19.0 0.00 0.00 0.00 60 1007.1
20260505212001 65 152 8.0 20.0 0.00 0.00 0.00 59 1007.0
20260505211502 66 178 8.0 23.0 0.00 0.00 0.00 59 1007.0
20260505211009 66 169 8.0 23.0 0.00 0.00 0.00 57 1007.1
20260505210459 66 198 8.0 22.0 0.00 0.00 0.00 57 1007.1
20260505210006 66 71 8.0 22.0 0.00 0.00 0.00 57 1007.1
20260505205503 67 151 7.0 18.0 0.00 0.00 0.00 57 1007.1
20260505205025 67 154 7.0 20.0 0.00 0.00 0.00 56 1007.1
20260505204500 67 141 10.0 25.0 0.00 0.00 0.00 57 1007.1
20260505203459 66 202 10.0 29.0 0.00 0.00 0.00 57 1007.0
20260505203000 66 225 10.0 29.0 0.00 0.00 0.00 57 1007.0
20260505202459 67 202 9.0 25.0 0.00 0.00 0.00 57 1007.0
20260505202000 67 131 8.0 25.0 0.00 0.00 0.00 57 1007.1
20260505201459 68 134 9.0 28.0 0.00 0.00 0.00 57 1007.2
20260505201000 67 154 9.0 28.0 0.00 0.00 0.00 58 1007.2
20260505200500 67 97 9.0 31.0 0.00 0.00 0.00 56 1007.2
20260505200000 67 206 9.0 31.0 0.00 0.00 0.00 59 1007.3
20260505195500 68 192 8.0 19.0 0.00 0.00 0.00 57 1007.3
20260505195005 68 209 8.0 21.0 0.00 0.00 0.00 57 1007.4
20260505194459 68 80 9.0 21.0 0.00 0.00 0.00 56 1007.4
20260505193459 68 165 10.0 28.0 0.00 0.00 0.00 56 1007.4
20260505193305 68 138 9.0 28.0 0.00 0.00 0.00 56 1007.5
20260505173000 70 148 8.0 18.0 0.00 0.00 0.00 58 1008.5
20260505172459 69 146 9.0 21.0 0.00 0.00 0.00 57 1008.7
20260505171959 69 126 10.0 21.0 0.00 0.00 0.00 58 1008.7
20260505171459 69 186 9.0 18.0 0.00 0.00 0.00 56 1008.6
20260505170959 70 130 9.0 18.0 0.00 0.00 0.00 57 1008.8
20260505170459 70 205 9.0 19.0 0.00 0.00 0.00 55 1008.9
20260505165458 69 133 9.0 21.0 0.00 0.00 0.00 58 1009.1
20260505164959 68 171 9.0 20.0 0.00 0.00 0.00 59 1009.1
20260505164459 68 116 9.0 18.0 0.00 0.00 0.00 58 1009.0
20260505164001 68 262 9.0 18.0 0.00 0.00 0.00 57 1009.0
20260505163459 68 133 10.0 23.0 0.00 0.00 0.00 59 1009.0
20260505163000 68 130 10.0 23.0 0.00 0.00 0.00 59 1009.0
20260505162000 67 156 10.0 19.0 0.00 0.00 0.00 59 1009.0
20260505161459 68 143 9.0 19.0 0.00 0.00 0.00 58 1009.1
20260505161000 68 106 9.0 20.0 0.00 0.00 0.00 58 1009.1
20260505160458 68 140 10.0 20.0 0.00 0.00 0.00 59 1009.2
20260505152959 68 161 8.0 19.0 0.00 0.00 0.00 59 1009.2
20260505152459 69 167 8.0 16.0 0.00 0.00 0.00 58 1009.3
20260505152000 69 146 8.0 18.0 0.00 0.00 0.00 58 1009.3
20260505151500 68 130 9.0 18.0 0.00 0.00 0.00 60 1009.3
20260505140459 68 143 6.0 15.0 0.00 0.00 0.00 59 1009.2
20260505124524 62 216 6.0 18.0 0.00 0.00 0.00 66 1009.5
20260505123459 61 180 7.0 16.0 0.00 0.00 0.00 70 1009.3
20260505123009 60 150 6.0 15.0 0.00 0.00 0.00 71 1009.2
20260505122502 60 173 7.0 16.0 0.00 0.00 0.00 71 1009.3
20260505122005 60 136 7.0 16.0 0.00 0.00 0.00 72 1009.4
20260505121505 60 188 7.0 21.0 0.00 0.00 0.00 71 1009.4
20260505121000 59 196 7.0 21.0 0.00 0.00 0.00 72 1009.4
20260505120006 59 136 6.0 19.0 0.00 0.00 0.00 73 1009.3
20260505115503 59 163 5.0 13.0 0.00 0.00 0.00 74 1009.4
20260505115032 58 178 5.0 12.0 0.00 0.00 0.00 75 1009.4
20260505114002 57 143 6.0 15.0 0.00 0.00 0.00 77 1009.4
20260505113534 57 120 6.0 15.0 0.00 0.00 0.00 78 1009.4
20260505113008 56 109 6.0 22.0 0.00 0.00 0.00 78 1009.4
20260505112515 56 124 6.0 22.0 0.00 0.00 0.00 79 1009.5
20260505112033 55 173 6.0 16.0 0.00 0.00 0.00 79 1009.6
20260505111002 54 132 5.0 11.0 0.00 0.00 0.00 81 1009.4
20260505110510 54 139 5.0 12.0 0.00 0.00 0.00 82 1009.5
20260505102013 52 132 5.0 15.0 0.00 0.00 0.00 84 1009.4
20260505101501 52 259 6.0 15.0 0.00 0.00 0.00 84 1009.4
20260505100959 51 155 5.0 12.0 0.00 0.00 0.00 84 1009.4
20260505095534 51 175 5.0 12.0 0.00 0.00 0.00 84 1009.4
20260505095021 51 127 5.0 12.0 0.00 0.00 0.00 85 1009.4
20260505094505 51 157 4.0 11.0 0.00 0.00 0.00 85 1009.4
20260505094038 51 155 4.0 13.0 0.00 0.00 0.00 85 1009.4
20260505093516 51 144 5.0 13.0 0.00 0.00 0.00 85 1009.4
20260505093011 51 191 5.0 11.0 0.00 0.00 0.00 85 1009.5
20260505092008 51 167 4.0 11.0 0.00 0.00 0.00 85 1009.5
20260505091506 51 191 4.0 9.0 0.00 0.00 0.00 85 1009.5
20260505091003 51 161 4.0 10.0 0.00 0.00 0.00 86 1009.5
20260505090501 51 138 5.0 15.0 0.00 0.00 0.00 85 1009.4
20260505090032 51 165 6.0 15.0 0.00 0.00 0.00 86 1009.4
20260505085502 51 181 5.0 10.0 0.00 0.00 0.00 86 1009.4
20260505085003 51 146 4.0 11.0 0.00 0.00 0.00 86 1009.4
20260505084005 51 179 4.0 11.0 0.00 0.00 0.00 85 1009.5
20260505083509 51 165 5.0 16.0 0.00 0.00 0.00 85 1009.5
20260505082959 51 175 5.0 16.0 0.00 0.00 0.00 85 1009.4
20260505082457 51 154 5.0 12.0 0.00 0.00 0.00 85 1009.4
20260505082004 51 191 4.0 9.0 0.00 0.00 0.00 85 1009.4
20260505081501 50 154 4.0 9.0 0.00 0.00 0.00 85 1009.4
20260505081011 50 101 4.0 10.0 0.00 0.00 0.00 85 1009.6
20260505080507 50 172 4.0 10.0 0.00 0.00 0.00 85 1009.5
20260505080025 50 209 4.0 10.0 0.00 0.00 0.00 85 1009.5
20260505075537 50 157 4.0 10.0 0.00 0.00 0.00 85 1009.6
20260505075021 50 119 4.0 9.0 0.00 0.00 0.00 85 1009.5
20260505074458 50 168 4.0 8.0 0.00 0.00 0.00 85 1009.7
20260505073959 50 155 4.0 9.0 0.00 0.00 0.00 85 1009.8
20260505073011 50 164 4.0 10.0 0.00 0.00 0.00 84 1009.7
20260505072515 50 140 3.0 10.0 0.00 0.00 0.00 84 1009.7
20260505072005 50 154 2.0 8.0 0.00 0.00 0.00 84 1009.7
20260505070459 50 152 4.0 7.0 0.00 0.00 0.00 84 1009.6
20260505070008 50 154 3.0 7.0 0.00 0.00 0.00 83 1009.6
20260505065525 51 160 3.0 7.0 0.00 0.00 0.00 83 1009.7
20260505065002 51 223 4.0 9.0 0.00 0.00 0.00 83 1009.7
20260505064502 51 124 3.0 9.0 0.00 0.00 0.00 83 1009.7
20260505063959 50 179 3.0 8.0 0.00 0.00 0.00 83 1009.6
20260505063459 51 168 3.0 8.0 0.00 0.00 0.00 82 1009.8
20260505063004 51 190 3.0 11.0 0.00 0.00 0.00 82 1009.7
20260505062516 51 212 3.0 11.0 0.00 0.00 0.00 82 1009.7
20260505062002 51 180 3.0 11.0 0.00 0.00 0.00 81 1009.7
20260505061500 51 170 4.0 9.0 0.00 0.00 0.00 81 1009.7
20260505060509 51 160 3.0 9.0 0.00 0.00 0.00 80 1009.7
20260505060020 51 132 3.0 11.0 0.00 0.00 0.00 80 1009.7
20260505055517 51 171 4.0 11.0 0.00 0.00 0.00 80 1009.7
20260505055000 51 128 4.0 10.0 0.00 0.00 0.00 80 1009.7
20260505054504 51 170 4.0 9.0 0.00 0.00 0.00 80 1009.7
20260505054027 51 165 4.0 9.0 0.00 0.00 0.00 80 1009.6
20260505053501 51 185 4.0 9.0 0.00 0.00 0.00 79 1009.6
20260505052507 51 159 4.0 10.0 0.00 0.00 0.00 79 1009.6
20260505052006 52 136 4.0 10.0 0.00 0.00 0.00 78 1009.7
20260505051509 52 195 5.0 12.0 0.00 0.00 0.00 78 1009.7
20260505051019 52 205 5.0 12.0 0.00 0.00 0.00 78 1009.8
20260505041518 53 168 5.0 15.0 0.00 0.00 0.00 74 1009.9
20260505041002 53 153 5.0 15.0 0.00 0.00 0.00 73 1009.8
20260505040520 53 179 5.0 16.0 0.00 0.00 0.00 73 1009.8
20260505040030 53 150 6.0 16.0 0.00 0.00 0.00 73 1009.8
20260505035542 53 127 5.0 11.0 0.00 0.00 0.00 73 1009.8
20260505035023 53 159 4.0 13.0 0.00 0.00 0.00 73 1009.8
20260505034522 53 163 5.0 13.0 0.00 0.00 0.00 73 1009.8
20260505033514 53 198 4.0 14.0 0.00 0.00 0.00 73 1009.9
20260505032512 53 246 6.0 12.0 0.00 0.00 0.00 73 1010.0
20260505032006 53 188 6.0 15.0 0.00 0.00 0.00 73 1010.0
20260505031504 53 202 6.0 15.0 0.00 0.00 0.00 73 1010.0
20260505031000 53 169 5.0 13.0 0.00 0.00 0.00 73 1010.0
20260505030506 53 192 5.0 13.0 0.00 0.00 0.00 72 1009.9
20260505030022 53 128 6.0 16.0 0.00 0.00 0.00 72 1010.0
20260505025022 53 219 6.0 15.0 0.00 0.00 0.00 71 1010.0
20260505024511 53 177 6.0 15.0 0.00 0.00 0.00 71 1010.1
20260505024007 53 156 6.0 12.0 0.00 0.00 0.00 71 1010.0
20260505023514 53 217 6.0 13.0 0.00 0.00 0.00 71 1010.1
20260505023004 53 192 6.0 14.0 0.00 0.00 0.00 71 1010.0
20260505022512 53 165 6.0 14.0 0.00 0.00 0.00 71 1010.0
20260505022023 53 157 6.0 19.0 0.00 0.00 0.00 70 1010.0
20260505020525 54 157 6.0 16.0 0.00 0.00 0.00 70 1010.0
20260505020015 54 176 6.0 16.0 0.00 0.00 0.00 69 1010.0
20260505015008 54 143 5.0 18.0 0.00 0.00 0.00 69 1009.9
20260505014510 54 194 5.0 18.0 0.00 0.00 0.00 68 1009.9
20260505013504 54 184 6.0 15.0 0.00 0.00 0.00 67 1009.7
20260505013011 55 198 7.0 15.0 0.00 0.00 0.00 67 1009.7
20260505012501 55 182 7.0 15.0 0.00 0.00 0.00 66 1009.6
20260505012005 55 167 6.0 13.0 0.00 0.00 0.00 66 1009.6
20260505011550 55 207 6.0 19.0 0.00 0.00 0.00 65 1009.5
20260505011017 55 167 6.0 20.0 0.00 0.00 0.00 65 1009.4
20260505010507 55 210 7.0 20.0 0.00 0.00 0.00 64 1009.3
20260505005515 56 172 9.0 27.0 0.00 0.00 0.00 64 1009.1
20260505005033 56 171 7.0 21.0 0.00 0.00 0.00 64 1009.1
20260505004458 56 212 6.0 22.0 0.00 0.00 0.00 63 1009.0
20260505004003 56 206 7.0 22.0 0.00 0.00 0.00 63 1009.0
20260505003459 56 168 8.0 20.0 0.00 0.00 0.00 62 1008.8
20260505002516 56 186 6.0 20.0 0.00 0.00 0.00 61 1008.6
20260505001505 57 223 8.0 21.0 0.00 0.00 0.00 59 1008.4
20260505001004 57 204 8.0 21.0 0.00 0.00 0.00 58 1008.4
20260505000501 57 188 8.0 20.0 0.00 0.00 0.00 57 1008.2
20260505000006 57 182 7.0 20.0 0.00 0.00 0.00 57 1008.2
20260504235517 57 219 8.0 15.0 0.00 0.00 0.00 57 1008.2
20260504235015 57 205 7.0 15.0 0.00 0.00 0.00 56 1008.1
20260504234501 57 194 6.0 18.0 0.00 0.00 0.00 54 1008.2
20260504234004 58 181 6.0 18.0 0.00 0.00 0.00 54 1008.1
20260504233459 58 213 6.0 18.0 0.00 0.00 0.00 53 1008.1
20260504233038 58 211 8.0 28.0 0.00 0.00 0.00 52 1008.0
20260504232502 59 166 8.0 28.0 0.00 0.00 0.00 50 1007.9
20260504232021 59 131 8.0 18.0 0.00 0.00 0.00 50 1007.8
20260504231510 59 231 7.0 18.0 0.00 0.00 0.00 49 1007.8
20260504231027 59 178 7.0 20.0 0.00 0.00 0.00 48 1007.7